Year,Month,Day,Hour,Minute,Value (Times are PST for temperature in C)
2009,09,13,00,00,15.10
2009,09,13,00,01,15.10
2009,09,13,00,02,15.10
2009,09,13,00,03,15.10
2009,09,13,00,04,15.10
2009,09,13,00,05,15.10
2009,09,13,00,06,15.10
2009,09,13,00,07,15.10
2009,09,13,00,08,15.10
2009,09,13,00,09,15.10
2009,09,13,00,10,15.10
2009,09,13,00,11,15.10
2009,09,13,00,12,15.10
2009,09,13,00,13,15.00
2009,09,13,00,14,15.00
2009,09,13,00,15,15.00
2009,09,13,00,16,15.00
2009,09,13,00,17,15.00
2009,09,13,00,18,15.00
2009,09,13,00,19,15.00
2009,09,13,00,20,15.00
2009,09,13,00,21,15.00
2009,09,13,00,22,15.00
2009,09,13,00,23,15.00
2009,09,13,00,24,15.10
2009,09,13,00,25,15.10
2009,09,13,00,26,15.10
2009,09,13,00,27,15.10
2009,09,13,00,28,15.10
2009,09,13,00,29,15.20
2009,09,13,00,30,15.20
2009,09,13,00,31,15.20
2009,09,13,00,32,15.20
2009,09,13,00,33,15.20
2009,09,13,00,34,15.20
2009,09,13,00,35,15.20
2009,09,13,00,36,15.20
2009,09,13,00,37,15.20
2009,09,13,00,38,15.20
2009,09,13,00,39,15.20
2009,09,13,00,40,15.20
2009,09,13,00,41,15.20
2009,09,13,00,42,15.30
2009,09,13,00,43,15.30
2009,09,13,00,44,15.30
2009,09,13,00,45,15.30
2009,09,13,00,46,15.30
2009,09,13,00,47,15.30
2009,09,13,00,48,15.30
2009,09,13,00,49,15.30
2009,09,13,00,50,15.30
2009,09,13,00,51,15.30
2009,09,13,00,52,15.30
2009,09,13,00,53,15.30
2009,09,13,00,54,15.30
2009,09,13,00,55,15.30
2009,09,13,00,56,15.30
2009,09,13,00,57,15.30
2009,09,13,00,58,15.30
2009,09,13,00,59,15.30
2009,09,13,01,00,15.30
2009,09,13,01,01,15.30
2009,09,13,01,02,15.30
2009,09,13,01,03,15.30
2009,09,13,01,04,15.30
2009,09,13,01,05,15.30
2009,09,13,01,06,15.30
2009,09,13,01,07,15.30
2009,09,13,01,08,15.30
2009,09,13,01,09,15.30
2009,09,13,01,10,15.20
2009,09,13,01,11,15.20
2009,09,13,01,12,15.10
2009,09,13,01,13,15.10
2009,09,13,01,14,15.10
2009,09,13,01,15,15.10
2009,09,13,01,16,15.10
2009,09,13,01,17,15.00
2009,09,13,01,18,15.00
2009,09,13,01,19,15.10
2009,09,13,01,20,15.20
2009,09,13,01,21,15.20
2009,09,13,01,22,15.20
2009,09,13,01,23,15.30
2009,09,13,01,24,15.30
2009,09,13,01,25,15.30
2009,09,13,01,26,15.30
2009,09,13,01,27,15.30
2009,09,13,01,28,15.30
2009,09,13,01,29,15.30
2009,09,13,01,30,15.30
2009,09,13,01,31,15.30
2009,09,13,01,32,15.20
2009,09,13,01,33,15.20
2009,09,13,01,34,15.20
2009,09,13,01,35,15.10
2009,09,13,01,36,15.10
2009,09,13,01,37,15.10
2009,09,13,01,38,15.10
2009,09,13,01,39,15.00
2009,09,13,01,40,15.00
2009,09,13,01,41,15.00
2009,09,13,01,42,14.90
2009,09,13,01,43,14.90
2009,09,13,01,44,14.80
2009,09,13,01,45,14.80
2009,09,13,01,46,14.80
2009,09,13,01,47,14.70
2009,09,13,01,48,14.60
2009,09,13,01,49,14.60
2009,09,13,01,50,14.50
2009,09,13,01,51,14.50
2009,09,13,01,52,14.50
2009,09,13,01,53,14.40
2009,09,13,01,54,14.40
2009,09,13,01,55,14.40
2009,09,13,01,56,14.30
2009,09,13,01,57,14.30
2009,09,13,01,58,14.30
2009,09,13,01,59,14.30
2009,09,13,02,00,14.30
2009,09,13,02,01,14.20
2009,09,13,02,02,14.20
2009,09,13,02,03,14.20
2009,09,13,02,04,14.20
2009,09,13,02,05,14.20
2009,09,13,02,06,14.20
2009,09,13,02,07,14.20
2009,09,13,02,08,14.20
2009,09,13,02,09,14.10
2009,09,13,02,10,14.10
2009,09,13,02,11,14.10
2009,09,13,02,12,14.10
2009,09,13,02,13,14.00
2009,09,13,02,14,14.00
2009,09,13,02,15,14.00
2009,09,13,02,16,13.90
2009,09,13,02,17,13.90
2009,09,13,02,18,13.90
2009,09,13,02,19,13.90
2009,09,13,02,20,13.90
2009,09,13,02,21,13.80
2009,09,13,02,22,13.80
2009,09,13,02,23,13.80
2009,09,13,02,24,13.80
2009,09,13,02,25,13.70
2009,09,13,02,26,13.70
2009,09,13,02,27,13.70
2009,09,13,02,28,13.70
2009,09,13,02,29,13.70
2009,09,13,02,30,13.70
2009,09,13,02,31,13.70
2009,09,13,02,32,13.70
2009,09,13,02,33,13.70
2009,09,13,02,34,13.70
2009,09,13,02,35,13.70
2009,09,13,02,36,13.70
2009,09,13,02,37,13.70
2009,09,13,02,38,13.70
2009,09,13,02,39,13.70
2009,09,13,02,40,13.70
2009,09,13,02,41,13.70
2009,09,13,02,42,13.70
2009,09,13,02,43,13.70
2009,09,13,02,44,13.70
2009,09,13,02,45,13.70
2009,09,13,02,46,13.70
2009,09,13,02,47,13.70
2009,09,13,02,48,13.60
2009,09,13,02,49,13.60
2009,09,13,02,50,13.60
2009,09,13,02,51,13.60
2009,09,13,02,52,13.60
2009,09,13,02,53,13.60
2009,09,13,02,54,13.60
2009,09,13,02,55,13.60
2009,09,13,02,56,13.70
2009,09,13,02,57,13.70
2009,09,13,02,58,13.70
2009,09,13,02,59,13.70
2009,09,13,03,00,13.80
2009,09,13,03,01,13.80
2009,09,13,03,02,13.80
2009,09,13,03,03,13.80
2009,09,13,03,04,13.80
2009,09,13,03,05,13.70
2009,09,13,03,06,13.70
2009,09,13,03,07,13.70
2009,09,13,03,08,13.70
2009,09,13,03,09,13.70
2009,09,13,03,10,13.60
2009,09,13,03,11,13.60
2009,09,13,03,12,13.60
2009,09,13,03,13,13.60
2009,09,13,03,14,13.60
2009,09,13,03,15,13.70
2009,09,13,03,16,13.70
2009,09,13,03,17,13.70
2009,09,13,03,18,13.70
2009,09,13,03,19,13.70
2009,09,13,03,20,13.70
2009,09,13,03,21,13.70
2009,09,13,03,22,13.70
2009,09,13,03,23,13.70
2009,09,13,03,24,13.70
2009,09,13,03,25,13.70
2009,09,13,03,26,13.70
2009,09,13,03,27,13.70
2009,09,13,03,28,13.70
2009,09,13,03,29,13.70
2009,09,13,03,30,13.70
2009,09,13,03,31,13.80
2009,09,13,03,32,13.80
2009,09,13,03,33,13.80
2009,09,13,03,34,13.90
2009,09,13,03,35,13.90
2009,09,13,03,36,13.90
2009,09,13,03,37,13.90
2009,09,13,03,38,13.90
2009,09,13,03,39,13.90
2009,09,13,03,40,13.90
2009,09,13,03,41,13.80
2009,09,13,03,42,13.80
2009,09,13,03,43,13.70
2009,09,13,03,44,13.70
2009,09,13,03,45,13.70
2009,09,13,03,46,13.70
2009,09,13,03,47,13.70
2009,09,13,03,48,13.70
2009,09,13,03,49,13.70
2009,09,13,03,50,13.70
2009,09,13,03,51,13.70
2009,09,13,03,52,13.70
2009,09,13,03,53,13.80
2009,09,13,03,54,13.80
2009,09,13,03,55,13.80
2009,09,13,03,56,13.80
2009,09,13,03,57,13.90
2009,09,13,03,58,13.80
2009,09,13,03,59,13.80
2009,09,13,04,00,13.80
2009,09,13,04,01,13.90
2009,09,13,04,02,13.90
2009,09,13,04,03,13.80
2009,09,13,04,04,13.80
2009,09,13,04,05,13.80
2009,09,13,04,06,13.70
2009,09,13,04,07,13.70
2009,09,13,04,08,13.70
2009,09,13,04,09,13.80
2009,09,13,04,10,13.80
2009,09,13,04,11,13.90
2009,09,13,04,12,13.90
2009,09,13,04,13,13.90
2009,09,13,04,14,13.90
2009,09,13,04,15,13.90
2009,09,13,04,16,13.90
2009,09,13,04,17,13.90
2009,09,13,04,18,13.80
2009,09,13,04,19,13.70
2009,09,13,04,20,13.70
2009,09,13,04,21,13.70
2009,09,13,04,22,13.80
2009,09,13,04,23,13.80
2009,09,13,04,24,13.90
2009,09,13,04,25,13.90
2009,09,13,04,26,14.00
2009,09,13,04,27,14.00
2009,09,13,04,28,14.10
2009,09,13,04,29,14.20
2009,09,13,04,30,14.20
2009,09,13,04,31,14.20
2009,09,13,04,32,14.20
2009,09,13,04,33,14.20
2009,09,13,04,34,14.20
2009,09,13,04,35,14.20
2009,09,13,04,36,14.20
2009,09,13,04,37,14.20
2009,09,13,04,38,14.20
2009,09,13,04,39,14.10
2009,09,13,04,40,14.10
2009,09,13,04,41,14.10
2009,09,13,04,42,14.10
2009,09,13,04,43,14.00
2009,09,13,04,44,14.00
2009,09,13,04,45,14.00
2009,09,13,04,46,14.00
2009,09,13,04,47,14.00
2009,09,13,04,48,14.00
2009,09,13,04,49,13.90
2009,09,13,04,50,13.90
2009,09,13,04,51,14.00
2009,09,13,04,52,14.00
2009,09,13,04,53,14.00
2009,09,13,04,54,14.00
2009,09,13,04,55,14.00
2009,09,13,04,56,13.90
2009,09,13,04,57,13.90
2009,09,13,04,58,13.80
2009,09,13,04,59,13.70
2009,09,13,05,00,13.70
2009,09,13,05,01,13.70
2009,09,13,05,02,13.70
2009,09,13,05,03,13.70
2009,09,13,05,04,13.70
2009,09,13,05,05,13.60
2009,09,13,05,06,13.60
2009,09,13,05,07,13.60
2009,09,13,05,08,13.60
2009,09,13,05,09,13.50
2009,09,13,05,10,13.50
2009,09,13,05,11,13.50
2009,09,13,05,12,13.50
2009,09,13,05,13,13.50
2009,09,13,05,14,13.50
2009,09,13,05,15,13.60
2009,09,13,05,16,13.60
2009,09,13,05,17,13.60
2009,09,13,05,18,13.60
2009,09,13,05,19,13.60
2009,09,13,05,20,13.60
2009,09,13,05,21,13.50
2009,09,13,05,22,13.50
2009,09,13,05,23,13.50
2009,09,13,05,24,13.50
2009,09,13,05,25,13.40
2009,09,13,05,26,13.40
2009,09,13,05,27,13.30
2009,09,13,05,28,13.30
2009,09,13,05,29,13.30
2009,09,13,05,30,13.20
2009,09,13,05,31,13.20
2009,09,13,05,32,13.20
2009,09,13,05,33,13.10
2009,09,13,05,34,13.10
2009,09,13,05,35,13.10
2009,09,13,05,36,13.10
2009,09,13,05,37,13.10
2009,09,13,05,38,13.00
2009,09,13,05,39,13.00
2009,09,13,05,40,13.00
2009,09,13,05,41,13.00
2009,09,13,05,42,12.90
2009,09,13,05,43,12.90
2009,09,13,05,44,12.90
2009,09,13,05,45,12.80
2009,09,13,05,46,12.80
2009,09,13,05,47,12.80
2009,09,13,05,48,12.80
2009,09,13,05,49,12.80
2009,09,13,05,50,12.80
2009,09,13,05,51,12.80
2009,09,13,05,52,12.80
2009,09,13,05,53,12.70
2009,09,13,05,54,12.70
2009,09,13,05,55,12.70
2009,09,13,05,56,12.70
2009,09,13,05,57,12.70
2009,09,13,05,58,12.70
2009,09,13,05,59,12.60
2009,09,13,06,00,12.60
2009,09,13,06,01,12.60
2009,09,13,06,02,12.60
2009,09,13,06,03,12.60
2009,09,13,06,04,12.60
2009,09,13,06,05,12.70
2009,09,13,06,06,12.70
2009,09,13,06,07,12.70
2009,09,13,06,08,12.70
2009,09,13,06,09,12.70
2009,09,13,06,10,12.70
2009,09,13,06,11,12.70
2009,09,13,06,12,12.70
2009,09,13,06,13,12.70
2009,09,13,06,14,12.60
2009,09,13,06,15,12.60
2009,09,13,06,16,12.60
2009,09,13,06,17,12.60
2009,09,13,06,18,12.60
2009,09,13,06,19,12.60
2009,09,13,06,20,12.60
2009,09,13,06,21,12.60
2009,09,13,06,22,12.60
2009,09,13,06,23,12.60
2009,09,13,06,24,12.60
2009,09,13,06,25,12.50
2009,09,13,06,26,12.50
2009,09,13,06,27,12.50
2009,09,13,06,28,12.50
2009,09,13,06,29,12.50
2009,09,13,06,30,12.60
2009,09,13,06,31,12.60
2009,09,13,06,32,12.60
2009,09,13,06,33,12.60
2009,09,13,06,34,12.60
2009,09,13,06,35,12.60
2009,09,13,06,36,12.60
2009,09,13,06,37,12.60
2009,09,13,06,38,12.60
2009,09,13,06,39,12.60
2009,09,13,06,40,12.60
2009,09,13,06,41,12.50
2009,09,13,06,42,12.50
2009,09,13,06,43,12.50
2009,09,13,06,44,12.50
2009,09,13,06,45,12.50
2009,09,13,06,46,12.50
2009,09,13,06,47,12.60
2009,09,13,06,48,12.50
2009,09,13,06,49,12.50
2009,09,13,06,50,12.50
2009,09,13,06,51,12.50
2009,09,13,06,52,12.50
2009,09,13,06,53,12.40
2009,09,13,06,54,12.40
2009,09,13,06,55,12.40
2009,09,13,06,56,12.40
2009,09,13,06,57,12.40
2009,09,13,06,58,12.40
2009,09,13,06,59,12.40
2009,09,13,07,00,12.40
2009,09,13,07,01,12.40
2009,09,13,07,02,12.40
2009,09,13,07,03,12.40
2009,09,13,07,04,12.40
2009,09,13,07,05,12.50
2009,09,13,07,06,12.50
2009,09,13,07,07,12.50
2009,09,13,07,08,12.50
2009,09,13,07,09,12.50
2009,09,13,07,10,12.60
2009,09,13,07,11,12.60
2009,09,13,07,12,12.60
2009,09,13,07,13,12.70
2009,09,13,07,14,12.70
2009,09,13,07,15,12.80
2009,09,13,07,16,12.80
2009,09,13,07,17,12.80
2009,09,13,07,18,12.90
2009,09,13,07,19,12.90
2009,09,13,07,20,12.90
2009,09,13,07,21,12.90
2009,09,13,07,22,12.90
2009,09,13,07,23,12.90
2009,09,13,07,24,12.90
2009,09,13,07,25,12.90
2009,09,13,07,26,13.00
2009,09,13,07,27,13.00
2009,09,13,07,28,13.00
2009,09,13,07,29,13.10
2009,09,13,07,30,13.10
2009,09,13,07,31,13.10
2009,09,13,07,32,13.20
2009,09,13,07,33,13.20
2009,09,13,07,34,13.30
2009,09,13,07,35,13.30
2009,09,13,07,36,13.30
2009,09,13,07,37,13.30
2009,09,13,07,38,13.40
2009,09,13,07,39,13.40
2009,09,13,07,40,13.50
2009,09,13,07,41,13.50
2009,09,13,07,42,13.60
2009,09,13,07,43,13.70
2009,09,13,07,44,13.70
2009,09,13,07,45,13.70
2009,09,13,07,46,13.70
2009,09,13,07,47,13.80
2009,09,13,07,48,13.90
2009,09,13,07,49,13.90
2009,09,13,07,50,14.00
2009,09,13,07,51,14.00
2009,09,13,07,52,14.10
2009,09,13,07,53,14.10
2009,09,13,07,54,14.20
2009,09,13,07,55,14.20
2009,09,13,07,56,14.30
2009,09,13,07,57,14.30
2009,09,13,07,58,14.40
2009,09,13,07,59,14.50
2009,09,13,08,00,14.50
2009,09,13,08,01,14.60
2009,09,13,08,02,14.70
2009,09,13,08,03,14.80
2009,09,13,08,04,14.80
2009,09,13,08,05,14.90
2009,09,13,08,06,14.90
2009,09,13,08,07,15.00
2009,09,13,08,08,15.10
2009,09,13,08,09,15.10
2009,09,13,08,10,15.20
2009,09,13,08,11,15.30
2009,09,13,08,12,15.30
2009,09,13,08,13,15.30
2009,09,13,08,14,15.40
2009,09,13,08,15,15.40
2009,09,13,08,16,15.50
2009,09,13,08,17,15.50
2009,09,13,08,18,15.60
2009,09,13,08,19,15.70
2009,09,13,08,20,15.70
2009,09,13,08,21,15.80
2009,09,13,08,22,15.80
2009,09,13,08,23,15.80
2009,09,13,08,24,15.90
2009,09,13,08,25,15.90
2009,09,13,08,26,16.00
2009,09,13,08,27,16.10
2009,09,13,08,28,16.10
2009,09,13,08,29,16.20
2009,09,13,08,30,16.30
2009,09,13,08,31,16.40
2009,09,13,08,32,16.50
2009,09,13,08,33,16.60
2009,09,13,08,34,16.70
2009,09,13,08,35,16.80
2009,09,13,08,36,16.90
2009,09,13,08,37,17.00
2009,09,13,08,38,17.10
2009,09,13,08,39,17.20
2009,09,13,08,40,17.30
2009,09,13,08,41,17.30
2009,09,13,08,42,17.50
2009,09,13,08,43,17.50
2009,09,13,08,44,17.60
2009,09,13,08,45,17.70
2009,09,13,08,46,17.70
2009,09,13,08,47,17.70
2009,09,13,08,48,17.80
2009,09,13,08,49,17.80
2009,09,13,08,50,17.90
2009,09,13,08,51,17.90
2009,09,13,08,52,18.00
2009,09,13,08,53,18.10
2009,09,13,08,54,18.20
2009,09,13,08,55,18.20
2009,09,13,08,56,18.20
2009,09,13,08,57,18.20
2009,09,13,08,58,18.10
2009,09,13,08,59,18.10
2009,09,13,09,00,18.00
2009,09,13,09,01,17.90
2009,09,13,09,02,17.90
2009,09,13,09,03,17.90
2009,09,13,09,04,17.90
2009,09,13,09,05,17.80
2009,09,13,09,06,17.80
2009,09,13,09,07,17.80
2009,09,13,09,08,17.70
2009,09,13,09,09,17.70
2009,09,13,09,10,17.70
2009,09,13,09,11,17.80
2009,09,13,09,12,17.70
2009,09,13,09,13,17.80
2009,09,13,09,14,17.80
2009,09,13,09,15,17.80
2009,09,13,09,16,17.80
2009,09,13,09,17,17.80
2009,09,13,09,18,17.80
2009,09,13,09,19,17.80
2009,09,13,09,20,17.80
2009,09,13,09,21,17.90
2009,09,13,09,22,17.90
2009,09,13,09,23,17.90
2009,09,13,09,24,17.90
2009,09,13,09,25,17.90
2009,09,13,09,26,17.90
2009,09,13,09,27,17.90
2009,09,13,09,28,17.90
2009,09,13,09,29,17.90
2009,09,13,09,30,17.90
2009,09,13,09,31,17.90
2009,09,13,09,32,17.90
2009,09,13,09,33,18.00
2009,09,13,09,34,18.10
2009,09,13,09,35,18.10
2009,09,13,09,36,18.20
2009,09,13,09,37,18.20
2009,09,13,09,38,18.20
2009,09,13,09,39,18.30
2009,09,13,09,40,18.40
2009,09,13,09,41,18.40
2009,09,13,09,42,18.40
2009,09,13,09,43,18.40
2009,09,13,09,44,18.40
2009,09,13,09,45,18.40
2009,09,13,09,46,18.40
2009,09,13,09,47,18.40
2009,09,13,09,48,18.40
2009,09,13,09,49,18.40
2009,09,13,09,50,18.50
2009,09,13,09,51,18.50
2009,09,13,09,52,18.50
2009,09,13,09,53,18.50
2009,09,13,09,54,18.40
2009,09,13,09,55,18.50
2009,09,13,09,56,18.50
2009,09,13,09,57,18.60
2009,09,13,09,58,18.60
2009,09,13,09,59,18.60
2009,09,13,10,00,18.60
2009,09,13,10,01,18.70
2009,09,13,10,02,18.70
2009,09,13,10,03,18.80
2009,09,13,10,04,18.80
2009,09,13,10,05,18.80
2009,09,13,10,06,18.80
2009,09,13,10,07,18.80
2009,09,13,10,08,18.80
2009,09,13,10,09,18.80
2009,09,13,10,10,18.90
2009,09,13,10,11,18.90
2009,09,13,10,12,18.90
2009,09,13,10,13,18.90
2009,09,13,10,14,18.90
2009,09,13,10,15,19.10
2009,09,13,10,16,19.10
2009,09,13,10,17,19.10
2009,09,13,10,18,19.10
2009,09,13,10,19,19.20
2009,09,13,10,20,19.20
2009,09,13,10,21,19.30
2009,09,13,10,22,19.40
2009,09,13,10,23,19.40
2009,09,13,10,24,19.40
2009,09,13,10,25,19.50
2009,09,13,10,26,19.60
2009,09,13,10,27,19.70
2009,09,13,10,28,19.70
2009,09,13,10,29,19.80
2009,09,13,10,30,19.90
2009,09,13,10,31,19.90
2009,09,13,10,32,20.00
2009,09,13,10,33,19.90
2009,09,13,10,34,20.00
2009,09,13,10,35,20.10
2009,09,13,10,36,20.20
2009,09,13,10,37,20.20
2009,09,13,10,38,20.20
2009,09,13,10,39,20.20
2009,09,13,10,40,20.30
2009,09,13,10,41,20.40
2009,09,13,10,42,20.30
2009,09,13,10,43,20.30
2009,09,13,10,44,20.30
2009,09,13,10,45,20.30
2009,09,13,10,46,20.50
2009,09,13,10,47,20.50
2009,09,13,10,48,20.60
2009,09,13,10,49,20.60
2009,09,13,10,50,20.60
2009,09,13,10,51,20.60
2009,09,13,10,52,20.60
2009,09,13,10,53,20.60
2009,09,13,10,54,20.70
2009,09,13,10,55,20.70
2009,09,13,10,56,20.70
2009,09,13,10,57,20.80
2009,09,13,10,58,20.80
2009,09,13,10,59,20.80
2009,09,13,11,00,20.80
2009,09,13,11,01,20.80
2009,09,13,11,02,21.00
2009,09,13,11,03,21.00
2009,09,13,11,04,21.00
2009,09,13,11,05,21.00
2009,09,13,11,06,21.10
2009,09,13,11,07,21.20
2009,09,13,11,08,21.20
2009,09,13,11,09,21.30
2009,09,13,11,10,21.30
2009,09,13,11,11,21.30
2009,09,13,11,12,21.30
2009,09,13,11,13,21.40
2009,09,13,11,14,21.50
2009,09,13,11,15,21.60
2009,09,13,11,16,21.60
2009,09,13,11,17,21.60
2009,09,13,11,18,21.70
2009,09,13,11,19,21.70
2009,09,13,11,20,21.60
2009,09,13,11,21,21.50
2009,09,13,11,22,21.30
2009,09,13,11,23,21.40
2009,09,13,11,24,21.40
2009,09,13,11,25,21.50
2009,09,13,11,26,21.60
2009,09,13,11,27,21.60
2009,09,13,11,28,21.60
2009,09,13,11,29,21.60
2009,09,13,11,30,21.60
2009,09,13,11,31,21.60
2009,09,13,11,32,21.60
2009,09,13,11,33,21.60
2009,09,13,11,34,21.60
2009,09,13,11,35,21.60
2009,09,13,11,36,21.70
2009,09,13,11,37,21.70
2009,09,13,11,38,21.80
2009,09,13,11,39,21.90
2009,09,13,11,40,21.90
2009,09,13,11,41,21.80
2009,09,13,11,42,21.90
2009,09,13,11,43,21.90
2009,09,13,11,44,22.00
2009,09,13,11,45,22.00
2009,09,13,11,46,22.00
2009,09,13,11,47,22.10
2009,09,13,11,48,22.10
2009,09,13,11,49,22.10
2009,09,13,11,50,22.10
2009,09,13,11,51,22.20
2009,09,13,11,52,22.20
2009,09,13,11,53,22.30
2009,09,13,11,54,22.30
2009,09,13,11,55,22.40
2009,09,13,11,56,22.40
2009,09,13,11,57,22.50
2009,09,13,11,58,22.70
2009,09,13,11,59,22.70
2009,09,13,12,00,22.70
2009,09,13,12,01,22.70
2009,09,13,12,02,22.70
2009,09,13,12,03,22.70
2009,09,13,12,04,22.90
2009,09,13,12,05,22.90
2009,09,13,12,06,22.80
2009,09,13,12,07,22.80
2009,09,13,12,08,22.90
2009,09,13,12,09,22.90
2009,09,13,12,10,22.90
2009,09,13,12,11,23.00
2009,09,13,12,12,23.20
2009,09,13,12,13,23.30
2009,09,13,12,14,23.40
2009,09,13,12,15,23.50
2009,09,13,12,16,23.60
2009,09,13,12,17,23.70
2009,09,13,12,18,23.60
2009,09,13,12,19,23.50
2009,09,13,12,20,23.40
2009,09,13,12,21,23.50
2009,09,13,12,22,23.60
2009,09,13,12,23,23.60
2009,09,13,12,24,23.60
2009,09,13,12,25,23.60
2009,09,13,12,26,23.60
2009,09,13,12,27,23.50
2009,09,13,12,28,23.50
2009,09,13,12,29,23.70
2009,09,13,12,30,23.70
2009,09,13,12,31,23.70
2009,09,13,12,32,23.70
2009,09,13,12,33,23.70
2009,09,13,12,34,23.70
2009,09,13,12,35,23.60
2009,09,13,12,36,23.50
2009,09,13,12,37,23.40
2009,09,13,12,38,23.50
2009,09,13,12,39,23.60
2009,09,13,12,40,23.60
2009,09,13,12,41,23.60
2009,09,13,12,42,23.70
2009,09,13,12,43,23.70
2009,09,13,12,44,23.60
2009,09,13,12,45,23.60
2009,09,13,12,46,23.60
2009,09,13,12,47,23.70
2009,09,13,12,48,23.80
2009,09,13,12,49,23.90
2009,09,13,12,50,24.10
2009,09,13,12,51,24.10
2009,09,13,12,52,24.10
2009,09,13,12,53,24.10
2009,09,13,12,54,24.10
2009,09,13,12,55,24.20
2009,09,13,12,56,24.20
2009,09,13,12,57,24.20
2009,09,13,12,58,24.20
2009,09,13,12,59,24.10
2009,09,13,13,00,24.10
2009,09,13,13,01,23.90
2009,09,13,13,02,23.60
2009,09,13,13,03,23.40
2009,09,13,13,04,23.20
2009,09,13,13,05,23.10
2009,09,13,13,06,23.00
2009,09,13,13,07,22.90
2009,09,13,13,08,22.90
2009,09,13,13,09,22.90
2009,09,13,13,10,22.90
2009,09,13,13,11,22.90
2009,09,13,13,12,22.90
2009,09,13,13,13,22.70
2009,09,13,13,14,22.50
2009,09,13,13,15,22.40
2009,09,13,13,16,22.30
2009,09,13,13,17,22.40
2009,09,13,13,18,22.40
2009,09,13,13,19,22.20
2009,09,13,13,20,22.10
2009,09,13,13,21,22.00
2009,09,13,13,22,21.90
2009,09,13,13,23,21.80
2009,09,13,13,24,21.70
2009,09,13,13,25,21.60
2009,09,13,13,26,21.60
2009,09,13,13,27,21.60
2009,09,13,13,28,21.60
2009,09,13,13,29,21.60
2009,09,13,13,30,21.60
2009,09,13,13,31,21.60
2009,09,13,13,32,21.60
2009,09,13,13,33,21.70
2009,09,13,13,34,21.70
2009,09,13,13,35,21.70
2009,09,13,13,36,21.90
2009,09,13,13,37,22.00
2009,09,13,13,38,22.10
2009,09,13,13,39,22.20
2009,09,13,13,40,22.30
2009,09,13,13,41,22.50
2009,09,13,13,42,22.70
2009,09,13,13,43,22.90
2009,09,13,13,44,23.00
2009,09,13,13,45,23.10
2009,09,13,13,46,23.10
2009,09,13,13,47,23.00
2009,09,13,13,48,23.00
2009,09,13,13,49,23.10
2009,09,13,13,50,23.10
2009,09,13,13,51,23.30
2009,09,13,13,52,23.40
2009,09,13,13,53,23.50
2009,09,13,13,54,23.70
2009,09,13,13,55,23.80
2009,09,13,13,56,23.90
2009,09,13,13,57,23.90
2009,09,13,13,58,24.10
2009,09,13,13,59,24.10
2009,09,13,14,00,23.90
2009,09,13,14,01,23.70
2009,09,13,14,02,23.40
2009,09,13,14,03,23.20
2009,09,13,14,04,23.10
2009,09,13,14,05,23.10
2009,09,13,14,06,23.00
2009,09,13,14,07,22.90
2009,09,13,14,08,22.90
2009,09,13,14,09,22.80
2009,09,13,14,10,22.80
2009,09,13,14,11,22.80
2009,09,13,14,12,22.90
2009,09,13,14,13,22.80
2009,09,13,14,14,22.80
2009,09,13,14,15,22.80
2009,09,13,14,16,22.70
2009,09,13,14,17,22.80
2009,09,13,14,18,22.80
2009,09,13,14,19,22.80
2009,09,13,14,20,22.90
2009,09,13,14,21,22.90
2009,09,13,14,22,22.90
2009,09,13,14,23,23.00
2009,09,13,14,24,23.10
2009,09,13,14,25,23.20
2009,09,13,14,26,23.30
2009,09,13,14,27,23.40
2009,09,13,14,28,23.50
2009,09,13,14,29,23.60
2009,09,13,14,30,23.70
2009,09,13,14,31,23.70
2009,09,13,14,32,23.70
2009,09,13,14,33,23.70
2009,09,13,14,34,23.70
2009,09,13,14,35,23.70
2009,09,13,14,36,23.80
2009,09,13,14,37,23.80
2009,09,13,14,38,23.90
2009,09,13,14,39,23.90
2009,09,13,14,40,23.90
2009,09,13,14,41,23.80
2009,09,13,14,42,23.80
2009,09,13,14,43,23.70
2009,09,13,14,44,23.70
2009,09,13,14,45,23.70
2009,09,13,14,46,23.70
2009,09,13,14,47,23.70
2009,09,13,14,48,23.70
2009,09,13,14,49,23.70
2009,09,13,14,50,23.70
2009,09,13,14,51,23.70
2009,09,13,14,52,23.70
2009,09,13,14,53,23.80
2009,09,13,14,54,23.80
2009,09,13,14,55,23.90
2009,09,13,14,56,24.00
2009,09,13,14,57,24.10
2009,09,13,14,58,24.10
2009,09,13,14,59,24.10
2009,09,13,15,00,24.10
2009,09,13,15,01,24.10
2009,09,13,15,02,24.10
2009,09,13,15,03,24.20
2009,09,13,15,04,24.20
2009,09,13,15,05,24.20
2009,09,13,15,06,24.20
2009,09,13,15,07,24.30
2009,09,13,15,08,24.30
2009,09,13,15,09,24.30
2009,09,13,15,10,24.30
2009,09,13,15,11,24.30
2009,09,13,15,12,24.30
2009,09,13,15,13,24.30
2009,09,13,15,14,24.30
2009,09,13,15,15,24.30
2009,09,13,15,16,24.30
2009,09,13,15,17,24.30
2009,09,13,15,18,24.30
2009,09,13,15,19,24.40
2009,09,13,15,20,24.40
2009,09,13,15,21,24.50
2009,09,13,15,22,24.70
2009,09,13,15,23,24.70
2009,09,13,15,24,24.80
2009,09,13,15,25,24.90
2009,09,13,15,26,25.00
2009,09,13,15,27,25.10
2009,09,13,15,28,25.20
2009,09,13,15,29,25.20
2009,09,13,15,30,25.20
2009,09,13,15,31,25.30
2009,09,13,15,32,25.30
2009,09,13,15,33,25.40
2009,09,13,15,34,25.40
2009,09,13,15,35,25.50
2009,09,13,15,36,25.50
2009,09,13,15,37,25.60
2009,09,13,15,38,25.60
2009,09,13,15,39,25.70
2009,09,13,15,40,25.70
2009,09,13,15,41,25.70
2009,09,13,15,42,25.80
2009,09,13,15,43,25.80
2009,09,13,15,44,25.90
2009,09,13,15,45,25.90
2009,09,13,15,46,25.90
2009,09,13,15,47,25.90
2009,09,13,15,48,25.90
2009,09,13,15,49,25.80
2009,09,13,15,50,25.90
2009,09,13,15,51,25.90
2009,09,13,15,52,26.00
2009,09,13,15,53,26.00
2009,09,13,15,54,26.00
2009,09,13,15,55,26.10
2009,09,13,15,56,26.10
2009,09,13,15,57,26.20
2009,09,13,15,58,26.30
2009,09,13,15,59,26.40
2009,09,13,16,00,26.40
2009,09,13,16,01,26.40
2009,09,13,16,02,26.30
2009,09,13,16,03,26.30
2009,09,13,16,04,26.30
2009,09,13,16,05,26.20
2009,09,13,16,06,26.30
2009,09,13,16,07,26.30
2009,09,13,16,08,26.30
2009,09,13,16,09,26.40
2009,09,13,16,10,26.50
2009,09,13,16,11,26.60
2009,09,13,16,12,26.60
2009,09,13,16,13,26.60
2009,09,13,16,14,26.60
2009,09,13,16,15,26.60
2009,09,13,16,16,26.60
2009,09,13,16,17,26.60
2009,09,13,16,18,26.50
2009,09,13,16,19,26.40
2009,09,13,16,20,26.40
2009,09,13,16,21,26.40
2009,09,13,16,22,26.40
2009,09,13,16,23,26.50
2009,09,13,16,24,26.60
2009,09,13,16,25,26.60
2009,09,13,16,26,26.60
2009,09,13,16,27,26.40
2009,09,13,16,28,26.40
2009,09,13,16,29,26.40
2009,09,13,16,30,26.40
2009,09,13,16,31,26.40
2009,09,13,16,32,26.40
2009,09,13,16,33,26.50
2009,09,13,16,34,26.60
2009,09,13,16,35,26.60
2009,09,13,16,36,26.60
2009,09,13,16,37,26.60
2009,09,13,16,38,26.60
2009,09,13,16,39,26.70
2009,09,13,16,40,26.80
2009,09,13,16,41,26.90
2009,09,13,16,42,26.90
2009,09,13,16,43,27.00
2009,09,13,16,44,27.10
2009,09,13,16,45,27.10
2009,09,13,16,46,27.10
2009,09,13,16,47,27.10
2009,09,13,16,48,27.10
2009,09,13,16,49,27.10
2009,09,13,16,50,27.20
2009,09,13,16,51,27.20
2009,09,13,16,52,27.10
2009,09,13,16,53,27.10
2009,09,13,16,54,27.10
2009,09,13,16,55,27.20
2009,09,13,16,56,27.20
2009,09,13,16,57,27.20
2009,09,13,16,58,27.30
2009,09,13,16,59,27.30
2009,09,13,17,00,27.30
2009,09,13,17,01,27.30
2009,09,13,17,02,27.40
2009,09,13,17,03,27.50
2009,09,13,17,04,27.60
2009,09,13,17,05,27.70
2009,09,13,17,06,27.70
2009,09,13,17,07,27.70
2009,09,13,17,08,27.80
2009,09,13,17,09,27.80
2009,09,13,17,10,27.80
2009,09,13,17,11,27.90
2009,09,13,17,12,27.80
2009,09,13,17,13,27.80
2009,09,13,17,14,27.80
2009,09,13,17,15,27.90
2009,09,13,17,16,27.90
2009,09,13,17,17,28.00
2009,09,13,17,18,28.00
2009,09,13,17,19,28.10